Regional Weather Roundup
Issued by NWS

Home | Current Version | Previous Version | Graphics & Text | Print | Product List | Glossary On
Versions: 1 2 3 4 5 6 7 8 9 10 11 12 13 14 15 16 17 18 19 20 21 22 23 24 25 26 27 28 29 30 31 32 33 34 35 36 37 38 39 40 41 42 43 44 45 46 47 48 49 50
000
ASUS43 KIND 250509
RWRIN

WEATHER ROUNDUP FOR INDIANA
NATIONAL WEATHER SERVICE INDIANAPOLIS IN
1200 AM EST SUN JAN 25 2015

NOTE: "FAIR" INDICATES FEW OR NO CLOUDS BELOW 12,000 FEET WITH NO
SIGNIFICANT WEATHER AND/OR OBSTRUCTIONS TO VISIBILITY.

* - STATION DOES NOT REPORT WEATHER SUCH AS PRECIPITATION OR FOG.

+ - STATION NOT QUALITY CONTROLLED BY THE NATIONAL WEATHER SERVICE.
    USE DATA WITH CAUTION...ESPECIALLY DEWPOINT AND RELATIVE
    HUMIDITY OBSERVATIONS.

INZ001>003-010>013-019-020-250600-
NORTHWEST INDIANA

CITY           SKY/WX    TMP DP  RH WIND       PRES   REMARKS
GARY /AIRPORT/ MOCLDY    33  30  88 NE3       29.69S FOG
KNOX *+        MOCLDY    32  28  83 SW6       29.68S WCI  27
LA PORTE +     CLOUDY    34  34 100 CALM      29.69S FOG
MICHIGAN CITY+ CLOUDY    34  30  86 CALM      29.69S
MONTICELLO +   CLOUDY    34  33  97 S3        29.69S
RENSSELAER +   MOCLDY    34  34 100 CALM      29.68F FOG
VALPARAISO     FOG       32  30  92 CALM      29.68S VSB 3/4

$$

LMZ046-743>745-250600-
SOUTHERN LAKE MICHIGAN

STATION/POSITION TIME  TEMP WIND        PRES
                       AIR  DIR/SP/G
                 (UTC) (F)  (DEG/KT/KT) (MB)
MICHIGAN CITY    0500   34  170/  2/  3   N/A

$$

INZ004-005-014>016-021>024-250600-
NORTH CENTRAL INDIANA

CITY           SKY/WX    TMP DP  RH WIND       PRES   REMARKS
GOSHEN         CLOUDY    36  33  89 S6        29.68S
LOGANSPORT +   PTCLDY    32  32 100 SW3       29.71S
PERU/GRISSOM   PTCLDY    33  31  93 SW6       29.70S WCI  27
ROCHESTER +    CLOUDY    37  36  93 SW3       29.70S
SOUTH BEND     CLOUDY    36  32  85 CALM      29.69S
WARSAW +       CLOUDY    36  34  93 SW5       29.69S

$$

INZ006>009-017-018-025>027-250600-
NORTHEAST INDIANA

CITY           SKY/WX    TMP DP  RH WIND       PRES   REMARKS
ANGOLA *+      CLOUDY    36  25  64 CALM      29.68R
AUBURN +       CLOUDY    36  32  87 CALM      29.70S
FORT WAYNE     CLOUDY    36  33  89 SW9       29.71R
HUNTINGTON +   CLOUDY    36  31  83 SW3       29.71S

$$

INZ028-029-035-036-043>045-051>053-250600-
WEST CENTRAL INDIANA

CITY           SKY/WX    TMP DP  RH WIND       PRES   REMARKS
GREENCASTLE +  MOCLDY    37  30  75 SW5       29.73F
LAFAYETTE      CLOUDY    34  32  92 S5        29.70F WCI  30
TERRE HAUTE    PTCLDY    35  30  82 S6        29.74F WCI  30

$$

INZ030>032-037>040-046>048-054>057-064-065-250600-
CENTRAL INDIANA

CITY           SKY/WX    TMP DP  RH WIND       PRES   REMARKS
CP ATTERBURY + MOCLDY    37  32  81 SW3       29.76S
GREENWOOD *+   PTCLDY    34  28  80 S3        29.74S
INDIANAPOLIS   MOCLDY    31  29  92 SW6       29.73S WCI  25
-EAGLE CREEK   MOCLDY    35  31  85 SW5       29.72S WCI  31
KOKOMO *+      PTCLDY    34  30  86 SW6       29.71S WCI  29
MARION +       FAIR      32  30  93 SW7       29.72F WCI  26
MT COMFORT *+  CLEAR     32  28  86 S6        29.74S WCI  26
SHELBYVILLE    CLOUDY    34  29  82 S7        29.74S WCI  28
ZIONSVILLE +   PTCLDY    34  30  86 SW7       29.73S WCI  28

$$

INZ033-034-041-042-049-050-058-059-250600-
EAST CENTRAL INDIANA

CITY           SKY/WX    TMP DP  RH WIND       PRES   REMARKS
MUNCIE         CLEAR     35  30  82 SW7       29.72R WCI  29

$$

INZ060-061-067>069-081>083-085>088-250600-
SOUTHWEST INDIANA

CITY           SKY/WX    TMP DP  RH WIND       PRES   REMARKS
EVANSVILLE     MOCLDY    41  31  67 S5        29.80F
HUNTINGBURG *+ CLOUDY    39  28  65 S10       29.79F
WASHINGTON +   MOCLDY    39  28  65 SW10      29.76F

$$

INZ062-063-066-070>080-084-089>092-250600-
SOUTH CENTRAL AND SOUTHEAST INDIANA

CITY           SKY/WX    TMP DP  RH WIND       PRES   REMARKS
BLOOMINGTON    MOCLDY    38  31  76 SW7       29.75F

$$



USA.gov is the U.S. government's official web portal to all federal, state and local government web resources and services.